Location: Azul
(36.7830°S, 59.8500°W)
Time: 12:29:47
(UTC-03:00)

ISS - Pass Details

Date: 20 February 2018
Orbit: 403 x 406 km, 51.6° (Epoch: 26 February)

Event Time Altitude Azimuth Distance (km) Brightness Sun altitude
Rises 20:31:39 0° 330° (NNW) 2,320 0.1 -8.8°
Reaches altitude 10° 20:33:48 10° 339° (NNW) 1,468 -1.0 -9.3°
Maximum altitude 20:36:51 35° 47° (NE) 686 -3.2 -9.8°
Drops below altitude 10° 20:39:56 10° 114° (ESE) 1,488 -1.4 -10.4°
Enters shadow 20:40:42 - 118° (ESE) 1,782 -0.9 -10.5°
